This is the latest recevied weather packets stored in our database for station/object KD8OZS. If no packets are shown the sender has not sent any weather packets the latest 10 day(s).
| Time | Temp. | Humidity | Pressure | Rain* | Wind** | Luminosity | Snow |
|---|---|---|---|---|---|---|---|
| 1778214235 | 7.22° C | 84% | 1006.1 hPa | 0 mm | - | 0 W/m² | - |
| 1778213931 | 7.22° C | 84% | 1006.2 hPa | 0 mm | - | 0 W/m² | - |
| 1778213628 | 7.22° C | 83% | 1005.9 hPa | 0 mm | - | 0 W/m² | - |
| 1778213325 | 7.22° C | 83% | 1006 hPa | 0 mm | - | 0 W/m² | - |
| 1778213022 | 7.78° C | 82% | 1005.9 hPa | 0 mm | - | 0 W/m² | - |
| 1778212719 | 7.78° C | 81% | 1006.2 hPa | 0 mm | - | 0 W/m² | - |
| 1778212416 | 7.78° C | 81% | 1006.1 hPa | 0 mm | - | 0 W/m² | - |
| 1778212113 | 7.78° C | 81% | 1006.3 hPa | 0 mm | - | 0 W/m² | - |
| 1778211810 | 7.78° C | 82% | 1006.2 hPa | 0 mm | - | 0 W/m² | - |
| 1778211507 | 7.78° C | 81% | 1006.2 hPa | 0 mm | - | 0 W/m² | - |
| 1778211205 | 7.78° C | 81% | 1006.3 hPa | 0 mm | - | 0 W/m² | - |
| 1778210902 | 7.78° C | 80% | 1006.2 hPa | 0 mm | - | 0 W/m² | - |
| 1778210600 | 8.33° C | 78% | 1006 hPa | 0 mm | - | 0 W/m² | - |
| 1778210296 | 8.33° C | 75% | 1006.4 hPa | 0 mm | - | 0 W/m² | - |
| 1778209993 | 7.78° C | 74% | 1006.2 hPa | 0 mm | - | 0 W/m² | - |
| 1778209689 | 7.78° C | 76% | 1006.4 hPa | 0 mm | - | 0 W/m² | - |
| 1778209387 | 8.33° C | 78% | 1006.4 hPa | 0 mm | - | 0 W/m² | - |
| 1778209083 | 8.33° C | 74% | 1006.3 hPa | 0 mm | - | 0 W/m² | - |
| 1778208781 | 8.33° C | 73% | 1006.2 hPa | 0 mm | - | 0 W/m² | - |
| 1778208476 | 8.33° C | 73% | 1006.3 hPa | 0 mm | - | 0 W/m² | - |
| 1778208173 | 8.89° C | 74% | 1006.5 hPa | 0 mm | - | 0 W/m² | - |
| 1778207870 | 8.89° C | 72% | 1006.3 hPa | 0 mm | - | 0 W/m² | - |
| 1778207568 | 9.44° C | 68% | 1006.5 hPa | 0 mm | - | 0 W/m² | - |
| 1778207263 | 9.44° C | 67% | 1006.3 hPa | 0 mm | - | 0 W/m² | - |
| 1778206960 | 8.89° C | 66% | 1006.1 hPa | 0 mm | - | 0 W/m² | - |
* Rain latest hour (hover to see other rain measurements)
** Current wind speed in m/s (hover to see current wind gust speed)